Time,TemperatureF,DewpointF,PressureIn,WindDirection,WindDirectionDegrees,WindSpeedMPH,WindSpeedGustMPH,Humidity,HourlyPrecipIn,Conditions,Clouds,dailyrainin,SoftwareType,DateUTC
2013-02-24 07:32:00,35.3,32.1,30.12,WNW,293,0.0,0.0,88,0.00,,,0.00,WUHU216HW,2013-02-24 15:32:00,
2013-02-24 07:33:00,35.3,32.1,30.12,WNW,293,0.0,0.0,88,0.00,,,0.00,WUHU216HW,2013-02-24 15:33:00,
2013-02-24 07:38:00,35.3,32.1,30.12,WNW,293,0.0,0.0,88,0.00,,,0.00,WUHU216HW,2013-02-24 15:38:00,
2013-02-24 08:00:00,37.3,35.1,30.11,South,180,0.4,0.4,92,0.00,,,0.00,WUHU216HW,2013-02-24 16:00:00,
2013-02-24 08:05:00,37.4,35.3,30.11,SSE,158,0.0,0.7,92,0.00,,,0.00,WUHU216HW,2013-02-24 16:05:00,
2013-02-24 08:10:00,37.8,35.6,30.10,South,180,0.7,1.6,92,0.00,,,0.00,WUHU216HW,2013-02-24 16:10:00,
2013-02-24 08:15:00,37.8,35.6,30.10,SW,225,0.4,1.6,92,0.00,,,0.00,WUHU216HW,2013-02-24 16:15:00,
2013-02-24 08:20:00,38.0,35.8,30.10,South,180,0.0,2.5,92,0.00,,,0.00,WUHU216HW,2013-02-24 16:20:00,
2013-02-24 08:25:00,38.2,36.0,30.09,SW,225,0.2,2.5,92,0.00,,,0.00,WUHU216HW,2013-02-24 16:25:00,
2013-02-24 08:30:00,38.5,36.4,30.09,SW,225,1.1,1.6,92,0.00,,,0.00,WUHU216HW,2013-02-24 16:30:00,
2013-02-24 08:35:00,38.9,36.7,30.09,WSW,248,0.0,2.7,92,0.00,,,0.00,WUHU216HW,2013-02-24 16:35:00,
2013-02-24 08:40:00,39.1,37.2,30.09,South,180,0.2,2.7,93,0.00,,,0.00,WUHU216HW,2013-02-24 16:40:00,
2013-02-24 08:45:00,39.2,37.1,30.09,SSE,158,0.4,1.8,92,0.00,,,0.00,WUHU216HW,2013-02-24 16:45:00,
2013-02-24 08:50:00,39.4,37.3,30.09,SSW,203,0.0,2.5,92,0.00,,,0.00,WUHU216HW,2013-02-24 16:50:00,
2013-02-24 08:55:00,39.8,37.6,30.09,South,180,1.6,2.5,92,0.00,,,0.00,WUHU216HW,2013-02-24 16:55:00,
2013-02-24 09:00:00,40.0,37.8,30.09,South,180,1.1,1.6,92,0.00,,,0.00,WUHU216HW,2013-02-24 17:00:00,
2013-02-24 09:05:00,40.3,38.2,30.09,SW,225,0.0,2.7,92,0.00,,,0.00,WUHU216HW,2013-02-24 17:05:00,
2013-02-24 09:10:00,40.7,38.3,30.09,SE,135,1.1,2.7,91,0.00,,,0.00,WUHU216HW,2013-02-24 17:10:00,
2013-02-24 09:15:00,40.9,38.2,30.09,South,180,1.6,1.6,90,0.00,,,0.00,WUHU216HW,2013-02-24 17:15:00,
2013-02-24 09:20:00,41.0,38.3,30.09,WSW,248,0.9,2.0,90,0.00,,,0.00,WUHU216HW,2013-02-24 17:20:00,
2013-02-24 09:25:00,41.4,38.7,30.10,SE,135,0.0,2.5,90,0.00,,,0.00,WUHU216HW,2013-02-24 17:25:00,
2013-02-24 09:30:00,41.4,38.7,30.09,SSW,203,0.0,2.5,90,0.00,,,0.00,WUHU216HW,2013-02-24 17:30:00,
2013-02-24 09:35:00,41.4,38.4,30.10,West,270,0.0,1.8,89,0.00,,,0.00,WUHU216HW,2013-02-24 17:35:00,
2013-02-24 09:40:00,41.2,38.3,30.10,NNW,338,0.0,1.3,89,0.00,,,0.00,WUHU216HW,2013-02-24 17:40:00,
2013-02-24 09:45:00,41.2,38.3,30.10,WSW,248,2.0,2.0,89,0.00,,,0.00,WUHU216HW,2013-02-24 17:45:00,
2013-02-24 09:50:00,41.4,38.4,30.10,WSW,248,3.1,3.1,89,0.00,,,0.00,WUHU216HW,2013-02-24 17:50:00,
2013-02-24 09:55:00,41.8,38.8,30.09,SE,135,0.0,4.0,89,0.00,,,0.00,WUHU216HW,2013-02-24 17:55:00,
2013-02-24 10:00:00,42.1,38.8,30.09,NW,315,1.1,4.0,88,0.00,,,0.00,WUHU216HW,2013-02-24 18:00:00,
2013-02-24 10:05:00,42.3,39.0,30.09,WSW,248,1.1,1.6,88,0.00,,,0.00,WUHU216HW,2013-02-24 18:05:00,
2013-02-24 10:10:00,42.5,38.9,30.09,NE,45,0.9,1.8,87,0.00,,,0.00,WUHU216HW,2013-02-24 18:10:00,
2013-02-24 10:15:00,42.8,39.3,30.09,SE,135,0.9,2.5,87,0.00,,,0.00,WUHU216HW,2013-02-24 18:15:00,
2013-02-24 10:20:00,43.4,40.1,30.08,SW,225,0.2,2.5,88,0.00,,,0.00,WUHU216HW,2013-02-24 18:20:00,
2013-02-24 10:25:00,43.6,40.0,30.08,WNW,293,0.2,3.4,87,0.00,,,0.00,WUHU216HW,2013-02-24 18:25:00,
2013-02-24 10:30:00,43.9,40.0,30.08,SSE,158,0.0,3.4,86,0.00,,,0.00,WUHU216HW,2013-02-24 18:30:00,
2013-02-24 10:35:00,44.1,40.1,30.08,North,0,0.2,2.7,86,0.00,,,0.00,WUHU216HW,2013-02-24 18:35:00,
2013-02-24 10:40:00,44.3,40.1,30.07,SSW,203,1.8,4.0,85,0.00,,,0.00,WUHU216HW,2013-02-24 18:40:00,
2013-02-24 10:45:00,44.8,40.3,30.07,East,90,0.2,4.0,84,0.00,,,0.00,WUHU216HW,2013-02-24 18:45:00,
2013-02-24 10:50:00,45.0,40.1,30.07,ENE,68,1.1,4.3,83,0.00,,,0.00,WUHU216HW,2013-02-24 18:50:00,
2013-02-24 10:55:00,45.2,40.3,30.07,South,180,1.6,4.3,83,0.00,,,0.00,WUHU216HW,2013-02-24 18:55:00,
2013-02-24 11:00:00,45.5,40.4,30.07,SSE,158,1.1,3.8,82,0.00,,,0.00,WUHU216HW,2013-02-24 19:00:00,
2013-02-24 11:05:00,45.7,40.2,30.07,South,180,0.9,2.9,81,0.00,,,0.00,WUHU216HW,2013-02-24 19:05:00,
2013-02-24 11:10:00,46.1,40.6,30.07,SE,135,0.9,2.5,81,0.00,,,0.00,WUHU216HW,2013-02-24 19:10:00,
2013-02-24 11:15:00,46.3,40.5,30.07,SSW,203,4.3,4.3,80,0.00,,,0.00,WUHU216HW,2013-02-24 19:15:00,
2013-02-24 11:20:00,46.4,40.3,30.06,WSW,248,1.1,4.3,79,0.00,,,0.00,WUHU216HW,2013-02-24 19:20:00,
2013-02-24 11:25:00,46.6,40.5,30.06,SW,225,0.4,4.3,79,0.00,,,0.00,WUHU216HW,2013-02-24 19:25:00,
2013-02-24 11:30:00,47.2,41.0,30.06,SSW,203,2.9,3.6,79,0.00,,,0.00,WUHU216HW,2013-02-24 19:30:00,
2013-02-24 11:35:00,47.5,41.0,30.05,East,90,3.8,3.8,78,0.00,,,0.00,WUHU216HW,2013-02-24 19:35:00,
2013-02-24 11:40:00,47.7,41.1,30.05,SSE,158,1.3,4.0,78,0.00,,,0.00,WUHU216HW,2013-02-24 19:40:00,
2013-02-24 11:45:00,47.9,40.6,30.05,SSW,203,3.4,6.0,76,0.00,,,0.00,WUHU216HW,2013-02-24 19:45:00,
2013-02-24 11:50:00,48.1,40.4,30.05,WSW,248,0.4,6.0,75,0.00,,,0.00,WUHU216HW,2013-02-24 19:50:00,
2013-02-24 11:55:00,48.4,40.8,30.05,SSE,158,0.2,3.4,75,0.00,,,0.00,WUHU216HW,2013-02-24 19:55:00,
2013-02-24 12:00:00,48.6,41.0,30.05,SSW,203,2.5,3.8,75,0.00,,,0.00,WUHU216HW,2013-02-24 20:00:00,
2013-02-24 12:05:00,48.8,40.8,30.04,SSW,203,1.6,3.8,74,0.00,,,0.00,WUHU216HW,2013-02-24 20:05:00,
2013-02-24 12:10:00,49.0,41.0,30.04,SSE,158,1.8,3.1,74,0.00,,,0.00,WUHU216HW,2013-02-24 20:10:00,
2013-02-24 12:15:00,49.1,41.1,30.04,West,270,2.9,4.5,74,0.00,,,0.00,WUHU216HW,2013-02-24 20:15:00,
2013-02-24 12:20:00,49.1,40.8,30.04,South,180,2.7,4.5,73,0.00,,,0.00,WUHU216HW,2013-02-24 20:20:00,
2013-02-24 12:25:00,49.3,41.0,30.04,SSW,203,2.2,5.6,73,0.00,,,0.00,WUHU216HW,2013-02-24 20:25:00,
2013-02-24 12:30:00,49.7,41.3,30.03,SW,225,2.2,5.6,73,0.00,,,0.00,WUHU216HW,2013-02-24 20:30:00,
2013-02-24 12:35:00,50.0,41.4,30.03,West,270,1.1,5.4,72,0.00,,,0.00,WUHU216HW,2013-02-24 20:35:00,
2013-02-24 12:40:00,50.0,41.4,30.03,SW,225,2.2,5.4,72,0.00,,,0.00,WUHU216HW,2013-02-24 20:40:00,
2013-02-24 12:45:00,50.2,40.9,30.03,SE,135,1.8,4.7,70,0.00,,,0.00,WUHU216HW,2013-02-24 20:45:00,
2013-02-24 12:50:00,50.2,40.9,30.02,SSW,203,0.4,4.5,70,0.00,,,0.00,WUHU216HW,2013-02-24 20:50:00,
2013-02-24 12:55:00,50.4,41.0,30.02,SSW,203,2.7,2.9,70,0.00,,,0.00,WUHU216HW,2013-02-24 20:55:00,
2013-02-24 13:00:00,50.6,40.4,30.02,ENE,68,1.1,2.9,68,0.00,,,0.00,WUHU216HW,2013-02-24 21:00:00,
2013-02-24 13:05:00,50.8,40.6,30.01,SW,225,2.2,2.9,68,0.00,,,0.00,WUHU216HW,2013-02-24 21:05:00,
2013-02-24 13:10:00,50.9,40.8,30.01,SSW,203,0.4,2.5,68,0.00,,,0.00,WUHU216HW,2013-02-24 21:10:00,
2013-02-24 13:15:00,50.9,40.8,30.01,SW,225,3.6,3.6,68,0.00,,,0.00,WUHU216HW,2013-02-24 21:15:00,
2013-02-24 13:20:00,51.1,41.0,30.00,SE,135,1.6,5.4,68,0.00,,,0.00,WUHU216HW,2013-02-24 21:20:00,
2013-02-24 13:25:00,51.1,40.5,30.00,WSW,248,1.6,5.4,67,0.00,,,0.00,WUHU216HW,2013-02-24 21:25:00,
2013-02-24 13:30:00,51.5,40.5,30.00,South,180,0.9,3.4,66,0.00,,,0.00,WUHU216HW,2013-02-24 21:30:00,
2013-02-24 13:35:00,51.5,39.7,30.00,SSE,158,2.2,4.0,64,0.00,,,0.00,WUHU216HW,2013-02-24 21:35:00,
2013-02-24 13:40:00,51.5,39.7,29.99,SW,225,1.8,4.7,64,0.00,,,0.00,WUHU216HW,2013-02-24 21:40:00,
2013-02-24 13:45:00,51.5,39.7,29.99,SSW,203,2.5,4.7,64,0.00,,,0.00,WUHU216HW,2013-02-24 21:45:00,
2013-02-24 13:50:00,51.8,40.0,29.99,ENE,68,3.6,4.7,64,0.00,,,0.00,WUHU216HW,2013-02-24 21:50:00,
2013-02-24 13:55:00,51.8,39.6,29.99,SW,225,1.8,4.7,63,0.00,,,0.00,WUHU216HW,2013-02-24 21:55:00,
2013-02-24 14:00:00,51.8,39.2,29.98,ESE,113,2.0,3.6,62,0.00,,,0.00,WUHU216HW,2013-02-24 22:00:00,
2013-02-24 14:05:00,51.7,39.0,29.98,SSE,158,1.3,3.1,62,0.00,,,0.00,WUHU216HW,2013-02-24 22:05:00,
2013-02-24 14:10:00,51.8,39.2,29.97,NE,45,0.4,2.5,62,0.00,,,0.00,WUHU216HW,2013-02-24 22:10:00,
2013-02-24 14:15:00,51.8,39.2,29.97,South,180,1.8,3.8,62,0.00,,,0.00,WUHU216HW,2013-02-24 22:15:00,
2013-02-24 14:20:00,51.8,39.2,29.97,SW,225,2.5,3.8,62,0.00,,,0.00,WUHU216HW,2013-02-24 22:20:00,
2013-02-24 14:25:00,51.8,38.3,29.97,South,180,2.5,4.0,60,0.00,,,0.00,WUHU216HW,2013-02-24 22:25:00,
2013-02-24 14:30:00,51.8,39.2,29.96,SSW,203,0.9,4.0,62,0.00,,,0.00,WUHU216HW,2013-02-24 22:30:00,
2013-02-24 14:35:00,52.0,38.5,29.96,SSW,203,1.8,3.6,60,0.00,,,0.00,WUHU216HW,2013-02-24 22:35:00,
2013-02-24 14:40:00,52.2,38.7,29.96,SSE,158,2.0,5.6,60,0.00,,,0.00,WUHU216HW,2013-02-24 22:40:00,
2013-02-24 14:45:00,52.2,38.3,29.96,WSW,248,2.2,5.6,59,0.00,,,0.00,WUHU216HW,2013-02-24 22:45:00,
2013-02-24 14:50:00,52.4,38.9,29.96,SE,135,1.3,3.1,60,0.00,,,0.00,WUHU216HW,2013-02-24 22:50:00,
2013-02-24 14:55:00,52.2,38.3,29.96,East,90,3.1,5.4,59,0.00,,,0.00,WUHU216HW,2013-02-24 22:55:00,
2013-02-24 15:00:00,52.2,38.7,29.96,South,180,1.3,5.4,60,0.00,,,0.00,WUHU216HW,2013-02-24 23:00:00,
2013-02-24 15:05:00,52.0,38.5,29.95,SW,225,0.4,4.3,60,0.00,,,0.00,WUHU216HW,2013-02-24 23:05:00,
2013-02-24 15:10:00,52.4,38.9,29.95,SE,135,2.5,4.3,60,0.00,,,0.00,WUHU216HW,2013-02-24 23:10:00,
2013-02-24 15:15:00,52.2,38.3,29.95,SSW,203,1.3,4.3,59,0.00,,,0.00,WUHU216HW,2013-02-24 23:15:00,
2013-02-24 15:20:00,52.4,38.4,29.95,SW,225,2.0,4.3,59,0.00,,,0.00,WUHU216HW,2013-02-24 23:20:00,
2013-02-24 15:25:00,52.6,38.6,29.95,South,180,2.7,3.8,59,0.00,,,0.00,WUHU216HW,2013-02-24 23:25:00,
2013-02-24 15:30:00,52.6,38.2,29.94,SW,225,3.1,3.8,58,0.00,,,0.00,WUHU216HW,2013-02-24 23:30:00,
2013-02-24 15:35:00,52.6,38.6,29.94,SE,135,2.5,5.1,59,0.00,,,0.00,WUHU216HW,2013-02-24 23:35:00,
2013-02-24 15:40:00,52.6,38.6,29.94,ESE,113,1.1,5.1,59,0.00,,,0.00,WUHU216HW,2013-02-24 23:40:00,
2013-02-24 15:45:00,52.6,38.2,29.94,SSW,203,1.6,3.4,58,0.00,,,0.00,WUHU216HW,2013-02-24 23:45:00,
2013-02-24 15:50:00,52.4,38.0,29.93,SW,225,1.6,2.7,58,0.00,,,0.00,WUHU216HW,2013-02-24 23:50:00,
2013-02-24 15:55:00,52.2,37.8,29.93,WSW,248,2.2,2.7,58,0.00,,,0.00,WUHU216HW,2013-02-24 23:55:00,
2013-02-24 16:00:00,52.2,38.3,29.93,NW,315,0.2,2.9,59,0.00,,,0.00,WUHU216HW,2013-02-25 00:00:00,
2013-02-24 16:05:00,52.2,38.7,29.92,East,90,0.7,2.9,60,0.00,,,0.00,WUHU216HW,2013-02-25 00:05:00,
2013-02-24 16:10:00,52.4,38.9,29.92,SW,225,1.1,2.5,60,0.00,,,0.00,WUHU216HW,2013-02-25 00:10:00,
2013-02-24 16:15:00,52.4,38.9,29.92,ESE,113,0.9,2.5,60,0.00,,,0.00,WUHU216HW,2013-02-25 00:15:00,
2013-02-24 16:20:00,52.2,38.7,29.92,WNW,293,0.9,3.1,60,0.00,,,0.00,WUHU216HW,2013-02-25 00:20:00,
2013-02-24 16:25:00,52.2,38.7,29.92,ENE,68,2.9,3.1,60,0.00,,,0.00,WUHU216HW,2013-02-25 00:25:00,
2013-02-24 16:30:00,52.0,38.5,29.91,SSW,203,0.7,2.9,60,0.00,,,0.00,WUHU216HW,2013-02-25 00:30:00,
2013-02-24 16:35:00,51.8,38.3,29.91,SSW,203,0.2,2.7,60,0.00,,,0.00,WUHU216HW,2013-02-25 00:35:00,
2013-02-24 16:40:00,51.7,38.6,29.91,South,180,1.1,2.0,61,0.00,,,0.00,WUHU216HW,2013-02-25 00:40:00,
2013-02-24 16:45:00,51.7,39.0,29.91,SSE,158,0.0,1.3,62,0.00,,,0.00,WUHU216HW,2013-02-25 00:45:00,
2013-02-24 16:50:00,51.5,38.9,29.91,SW,225,0.0,1.1,62,0.00,,,0.00,WUHU216HW,2013-02-25 00:50:00,
2013-02-24 16:55:00,51.5,38.4,29.91,SW,225,0.0,1.3,61,0.00,,,0.00,WUHU216HW,2013-02-25 00:55:00,
2013-02-24 17:00:00,51.1,38.5,29.91,South,180,2.2,2.2,62,0.00,,,0.00,WUHU216HW,2013-02-25 01:00:00,
2013-02-24 17:05:00,50.9,38.3,29.90,WSW,248,2.5,2.5,62,0.00,,,0.00,WUHU216HW,2013-02-25 01:05:00,
2013-02-24 17:10:00,50.9,38.3,29.90,SW,225,0.0,2.5,62,0.00,,,0.00,WUHU216HW,2013-02-25 01:10:00,
2013-02-24 17:15:00,50.8,38.6,29.90,SW,225,0.0,2.5,63,0.00,,,0.00,WUHU216HW,2013-02-25 01:15:00,
2013-02-24 17:20:00,50.6,38.4,29.89,SW,225,0.0,0.4,63,0.00,,,0.00,WUHU216HW,2013-02-25 01:20:00,
2013-02-24 17:25:00,50.2,38.4,29.89,SW,225,0.0,0.0,64,0.00,,,0.00,WUHU216HW,2013-02-25 01:25:00,
2013-02-24 17:30:00,49.9,38.2,29.89,SW,225,0.0,0.0,64,0.00,,,0.00,WUHU216HW,2013-02-25 01:30:00,
2013-02-24 17:35:00,49.3,37.6,29.89,SW,225,0.0,0.0,64,0.00,,,0.00,WUHU216HW,2013-02-25 01:35:00,
2013-02-24 17:40:00,49.1,37.8,29.89,SW,225,0.0,0.0,65,0.00,,,0.00,WUHU216HW,2013-02-25 01:40:00,
2013-02-24 17:45:00,49.0,38.1,29.89,SW,225,0.0,0.0,66,0.00,,,0.00,WUHU216HW,2013-02-25 01:45:00,
2013-02-24 17:50:00,48.6,37.7,29.88,SW,225,0.0,0.0,66,0.00,,,0.00,WUHU216HW,2013-02-25 01:50:00,
2013-02-24 17:55:00,48.2,37.7,29.88,SW,225,0.0,0.0,67,0.00,,,0.00,WUHU216HW,2013-02-25 01:55:00,
2013-02-24 18:00:00,48.1,37.6,29.89,SW,225,0.0,0.0,67,0.00,,,0.00,WUHU216HW,2013-02-25 02:00:00,
2013-02-24 18:05:00,47.9,37.8,29.88,SW,225,0.0,0.0,68,0.00,,,0.00,WUHU216HW,2013-02-25 02:05:00,
2013-02-24 18:10:00,47.5,37.4,29.88,SW,225,0.0,0.0,68,0.00,,,0.00,WUHU216HW,2013-02-25 02:10:00,
2013-02-24 18:15:00,47.3,37.7,29.88,SW,225,0.0,0.2,69,0.00,,,0.00,WUHU216HW,2013-02-25 02:15:00,
2013-02-24 18:20:00,47.2,37.5,29.87,SW,225,0.0,0.2,69,0.00,,,0.00,WUHU216HW,2013-02-25 02:20:00,
2013-02-24 18:25:00,47.2,37.9,29.87,SW,225,0.0,0.0,70,0.00,,,0.00,WUHU216HW,2013-02-25 02:25:00,
2013-02-24 18:30:00,46.8,37.6,29.87,SW,225,0.0,0.0,70,0.00,,,0.00,WUHU216HW,2013-02-25 02:30:00,
2013-02-24 18:35:00,46.8,37.9,29.87,SW,225,0.0,0.0,71,0.00,,,0.00,WUHU216HW,2013-02-25 02:35:00,
2013-02-24 18:40:00,46.6,37.8,29.86,SW,225,0.0,0.0,71,0.00,,,0.00,WUHU216HW,2013-02-25 02:40:00,
2013-02-24 18:45:00,46.4,38.0,29.86,SW,225,0.0,0.0,72,0.00,,,0.00,WUHU216HW,2013-02-25 02:45:00,
2013-02-24 18:50:00,46.1,37.6,29.86,SW,225,0.0,0.0,72,0.00,,,0.00,WUHU216HW,2013-02-25 02:50:00,
2013-02-24 18:55:00,45.9,37.7,29.86,SW,225,0.0,0.0,73,0.00,,,0.00,WUHU216HW,2013-02-25 02:55:00,
2013-02-24 19:00:00,45.7,37.5,29.86,SW,225,0.0,0.0,73,0.00,,,0.00,WUHU216HW,2013-02-25 03:00:00,
2013-02-24 19:05:00,45.5,37.4,29.86,SW,225,0.0,0.0,73,0.00,,,0.00,WUHU216HW,2013-02-25 03:05:00,
2013-02-24 19:10:00,45.4,37.5,29.86,SW,225,0.0,0.0,74,0.00,,,0.00,WUHU216HW,2013-02-25 03:10:00,
2013-02-24 19:15:00,45.4,37.5,29.86,SW,225,0.0,0.0,74,0.00,,,0.00,WUHU216HW,2013-02-25 03:15:00,
2013-02-24 19:20:00,45.0,37.2,29.86,SW,225,0.0,0.0,74,0.00,,,0.00,WUHU216HW,2013-02-25 03:20:00,
2013-02-24 19:25:00,45.0,37.2,29.86,SW,225,0.0,0.0,74,0.00,,,0.00,WUHU216HW,2013-02-25 03:25:00,
2013-02-24 19:30:00,44.8,37.0,29.86,SW,225,0.0,0.0,74,0.00,,,0.00,WUHU216HW,2013-02-25 03:30:00,
2013-02-24 19:35:00,44.6,36.8,29.86,SW,225,0.0,0.0,74,0.00,,,0.00,WUHU216HW,2013-02-25 03:35:00,
2013-02-24 19:40:00,44.5,37.0,29.86,SW,225,0.0,0.0,75,0.00,,,0.00,WUHU216HW,2013-02-25 03:40:00,
2013-02-24 19:45:00,44.3,36.8,29.85,SW,225,0.0,0.0,75,0.00,,,0.00,WUHU216HW,2013-02-25 03:45:00,
2013-02-24 19:50:00,44.3,36.8,29.84,SW,225,0.0,0.0,75,0.00,,,0.00,WUHU216HW,2013-02-25 03:50:00,
2013-02-24 19:55:00,44.1,37.0,29.84,SW,225,0.0,0.0,76,0.00,,,0.00,WUHU216HW,2013-02-25 03:55:00,
2013-02-24 20:00:00,43.9,36.8,29.84,SW,225,0.0,0.4,76,0.00,,,0.00,WUHU216HW,2013-02-25 04:00:00,
2013-02-24 20:05:00,43.7,37.0,29.84,SW,225,0.0,0.4,77,0.00,,,0.00,WUHU216HW,2013-02-25 04:05:00,
2013-02-24 20:10:00,43.6,36.8,29.84,SW,225,0.0,0.0,77,0.00,,,0.00,WUHU216HW,2013-02-25 04:10:00,
2013-02-24 20:15:00,43.6,36.8,29.84,SW,225,0.0,0.0,77,0.00,,,0.00,WUHU216HW,2013-02-25 04:15:00,
2013-02-24 20:20:00,43.6,36.8,29.84,SW,225,0.0,0.0,77,0.00,,,0.00,WUHU216HW,2013-02-25 04:20:00,
2013-02-24 20:25:00,43.6,37.2,29.84,SW,225,0.0,0.0,78,0.00,,,0.00,WUHU216HW,2013-02-25 04:25:00,
2013-02-24 20:30:00,43.4,37.0,29.83,SW,225,0.0,0.0,78,0.00,,,0.00,WUHU216HW,2013-02-25 04:30:00,
2013-02-24 20:35:00,43.6,37.4,29.84,SW,225,0.0,0.0,79,0.00,,,0.00,WUHU216HW,2013-02-25 04:35:00,
2013-02-24 20:40:00,43.6,37.4,29.84,SW,225,0.0,0.0,79,0.00,,,0.00,WUHU216HW,2013-02-25 04:40:00,
2013-02-24 20:45:00,43.6,37.4,29.83,SW,225,0.0,0.0,79,0.00,,,0.00,WUHU216HW,2013-02-25 04:45:00,
2013-02-24 20:50:00,43.6,37.4,29.83,SW,225,0.0,0.0,79,0.00,,,0.00,WUHU216HW,2013-02-25 04:50:00,
2013-02-24 20:55:00,43.7,38.0,29.83,SW,225,0.0,0.0,80,0.00,,,0.00,WUHU216HW,2013-02-25 04:55:00,
2013-02-24 21:00:00,43.7,38.0,29.83,SW,225,0.0,0.0,80,0.00,,,0.00,WUHU216HW,2013-02-25 05:00:00,
2013-02-24 21:05:00,43.9,38.2,29.84,SW,225,0.0,0.0,80,0.00,,,0.00,WUHU216HW,2013-02-25 05:05:00,
2013-02-24 21:10:00,43.9,38.2,29.84,SW,225,0.0,0.4,80,0.00,,,0.00,WUHU216HW,2013-02-25 05:10:00,
2013-02-24 21:15:00,44.1,38.3,29.83,SSW,203,0.0,0.9,80,0.00,,,0.00,WUHU216HW,2013-02-25 05:15:00,
2013-02-24 21:20:00,44.3,38.5,29.83,SW,225,0.0,0.9,80,0.00,,,0.00,WUHU216HW,2013-02-25 05:20:00,
2013-02-24 21:25:00,44.5,38.7,29.83,SW,225,0.0,0.9,80,0.00,,,0.00,WUHU216HW,2013-02-25 05:25:00,
2013-02-24 21:30:00,44.3,38.5,29.83,SW,225,0.0,0.0,80,0.00,,,0.00,WUHU216HW,2013-02-25 05:30:00,
2013-02-24 21:35:00,44.5,38.7,29.83,SW,225,0.0,0.0,80,0.00,,,0.00,WUHU216HW,2013-02-25 05:35:00,
2013-02-24 21:40:00,44.5,38.7,29.83,SW,225,0.0,0.0,80,0.00,,,0.00,WUHU216HW,2013-02-25 05:40:00,
2013-02-24 21:45:00,44.5,38.7,29.83,SW,225,0.0,0.0,80,0.00,,,0.00,WUHU216HW,2013-02-25 05:45:00,
2013-02-24 21:50:00,44.3,38.5,29.83,SW,225,0.0,0.0,80,0.00,,,0.00,WUHU216HW,2013-02-25 05:50:00,
2013-02-24 21:55:00,44.3,38.5,29.83,SW,225,0.0,0.0,80,0.00,,,0.00,WUHU216HW,2013-02-25 05:55:00,
2013-02-24 22:00:00,44.3,38.8,29.83,SW,225,0.0,0.0,81,0.00,,,0.00,WUHU216HW,2013-02-25 06:00:00,
2013-02-24 22:05:00,44.5,39.0,29.82,SW,225,0.0,0.4,81,0.00,,,0.00,WUHU216HW,2013-02-25 06:05:00,
2013-02-24 22:10:00,44.6,39.2,29.82,WSW,248,0.7,0.7,81,0.00,,,0.00,WUHU216HW,2013-02-25 06:10:00,
2013-02-24 22:15:00,44.6,38.9,29.82,NW,315,1.1,1.1,80,0.00,,,0.00,WUHU216HW,2013-02-25 06:15:00,
2013-02-24 22:18:00,44.8,39.1,29.82,SSW,203,2.9,2.9,80,0.00,,,0.00,WUHU216HW,2013-02-25 06:18:00,